Regional Weather Roundup
Issued by NWS

Home | Current Version | Previous Version | Graphics & Text | Print | Product List | Glossary On
Versions: 1 2 3 4 5 6 7 8 9 10 11 12 13 14 15 16 17 18 19 20 21 22 23 24 25 26 27 28 29 30 31 32 33 34 35 36 37 38 39 40 41 42 43 44 45 46 47 48 49 50
632
ASUS45 KABQ 071810
RWRNM
NEW MEXICO REGIONAL WEATHER ROUNDUP
NATIONAL WEATHER SERVICE ALBUQUERQUE NM
1100 AM MST SUN FEB 07 2016

NOTE: "FAIR" MEANS FEW OR NO CLOUDS BELOW 12,000 FEET AGL WITH NO
       SIGNIFICANT WEATHER OR OBSTRUCTIONS TO VISION.

      THIS PRODUCT IS RELEASED AS TWO VERSIONS.  ONE VERSION NEAR
      THE TOP OF THE HOUR CONTAINING PRELIMINARY DATA FROM ALBUQUERQUE
      AND OTHER STATIONS.  A FINAL VERSION WITH ADDITIONAL DATA IS
      ISSUED ABOUT 10 MINUTES AFTER THE HOUR.

NMZ501-503-504-510>518-071900-
NORTHWEST PLATEAU/NORTHCENTRAL MOUNTAINS

CITY           SKY/WX    TMP DP  RH WIND       PRES   REMARKS
FARMINGTON     CLOUDY    29  18  63 CALM      30.44S
6HR MIN TEMP:  14; 6HR MAX TEMP:  30;

LOS ALAMOS     CLOUDY    33  18  53 CALM      30.39R
SANTA FE       CLOUDY    39  15  37 N20G30    30.36S WCI  29
6HR MIN TEMP:  26; 6HR MAX TEMP:  39;

TAOS           CLOUDY    27  16  63 CALM      30.41R
ANGEL FIRE     FAIR      14   9  79 S3        30.37F

$$
NMZ402-403-502-505>509-071900-
WESTCENTRAL MOUNTAINS/SOUTHWEST MOUNTAINS

CITY           SKY/WX    TMP DP  RH WIND       PRES   REMARKS
GALLUP         SUNNY     39  20  46 CALM      30.44R
6HR MIN TEMP:  11; 6HR MAX TEMP:  39;

GRANTS         SUNNY     46  14  27 NW7       30.42S
SILVER CITY      N/A     55   7  14 SE7       30.35F

$$
NMZ407-409-411-412-071900-
SOUTHERN DESERTS

CITY           SKY/WX    TMP DP  RH WIND       PRES   REMARKS
LORDSBURG      FAIR      52  12  20 SE8       30.33F
DEMING         SUNNY     53  14  21 E8        30.34F
6HR MIN TEMP:  19; 6HR MAX TEMP:  53;

LAS CRUCES     SUNNY     53  13  20 NW13      30.35F
HOLLOMAN AFB   SUNNY     56  12  17 N14       30.30F
ALAMOGORDO     SUNNY     54  10  17 N13       30.31F
T OR C         SUNNY     48  13  24 NE7       30.35F
6HR MIN TEMP:  23; 6HR MAX TEMP:  49;


$$
NMZ519>523-071900-
CENTRAL VALLEYS/CENTRAL HIGHLANDS

CITY           SKY/WX    TMP DP  RH WIND       PRES   REMARKS
ALBUQUERQUE    MOSUNNY   45  15  30 NW7       30.40R
6HR MIN TEMP:  30; 6HR MAX TEMP:  45;

DOUBLE EAGLE   MOSUNNY   45  16  31 NW16      30.40R
MORIARTY ARPT  FAIR      49  15  25 NW12G20   30.35S
6HR MIN TEMP:  23; 6HR MAX TEMP:  49;

CLINES CORNERS CLOUDY    39  19  44 NW22      30.31R WCI  29
6HR MIN TEMP:  24; 6HR MAX TEMP:  40;

BELEN          FAIR      45  13  27 NE8       30.40S
6HR MIN TEMP:  18; 6HR MAX TEMP:  45;

SOCORRO        FAIR      46  14  27 N13G18    30.38F
6HR MIN TEMP:  25; 6HR MAX TEMP:  46;


$$
NMZ524>526-539-540-071900-
SOUTHCENTRAL MOUNTAINS

CITY           SKY/WX    TMP DP  RH WIND       PRES   REMARKS
RUIDOSO          N/A     50  10  20 NW17G24   30.33F

$$
NMZ527>531-071900-
NORTHEAST HIGHLANDS/NORTHEAST PLAINS

CITY           SKY/WX    TMP DP  RH WIND       PRES   REMARKS
LAS VEGAS      CLOUDY    51  16  24 N5        30.30R
6HR MIN TEMP:  29; 6HR MAX TEMP:  51;

RATON          CLOUDY    50  14  23 E6        30.26S
6HR MIN TEMP:  21; 6HR MAX TEMP:  51;

CLAYTON        SUNNY     49  19  30 NE6G17    30.28R
6HR MIN TEMP:  31; 6HR MAX TEMP:  50;


$$
NMZ532>537-071900-
EASTCENTRAL PLAINS

CITY           SKY/WX    TMP DP  RH WIND       PRES   REMARKS
TUCUMCARI      CLOUDY    54  19  25 E13       30.27S
6HR MIN TEMP:  22; 6HR MAX TEMP:  55;

CANNON AFB     SUNNY     55  19  24 NE18      30.25R
6HR MIN TEMP:  29; 6HR MAX TEMP:  55;

CLOVIS AIRPORT SUNNY     55  21  26 NE17      30.27S

$$
NMZ028-029-538-071900-
SOUTHEAST PLAINS

CITY           SKY/WX    TMP DP  RH WIND       PRES   REMARKS
ROSWELL        SUNNY     65  13  13 N21G30    30.21F
6HR MIN TEMP:  24; 6HR MAX TEMP:  66;

ARTESIA        SUNNY     55  18  22 NE10      30.24F
CARLSBAD       SUNNY     60  18  19 NE6       30.22S
6HR MIN TEMP:  26; 6HR MAX TEMP:  60;

HOBBS          SUNNY     63  18  17 NW15G21   30.22S


$$




USA.gov is the U.S. government's official web portal to all federal, state and local government web resources and services.